Yaogan Weixing 25 fu xing er

operational
NORAD ID: 40340 Int'l Des: 2014-080 Owner: ZZB Country: CN Constellation: yaogan
LEO

About Yaogan Weixing 25 fu xing er

Description loading...

Live Position

Loading 3D Globe...

Upcoming Passes

Altitude History

Altitude vs Time

uPlot chart will show altitude changes over time

Two-Line Element Set

1 40340U 14080C 26061.17533385 .00000251 00000-0 39212-3 0 9992
2 40340 63.3850 226.9654 0357488 9.1006 351.6273 13.45339653551351
Epoch: Mar 2, 2026 • Age: 43 hours

Current Status

Altitude 845.7 km
Velocity 7.55 km/s
Sub-Earth Point -12.18°S, 124.13°E
Launch Date Dec 10, 2014
Age 11.2 years
Type military

Technical Details

Classification Payload
Mass 500.00 kg
Dry Mass 500.00 kg
Total Mass 500.00 kg
Length 0.50 m
Diameter 0.50 m
Span 1.00 m
Shape Box + 2 Pan
Manufacturer CAST
Phase Status In Orbit
Owner/State ZZB/CN

Large Constellations

Loading constellations...